Date,TemperatureHighF,TemperatureAvgF,TemperatureLowF,DewpointHighF,DewpointAvgF,DewpointLowF,HumidityHigh,HumidityAvg,HumidityLow,PressureMaxIn,PressureMinIn,WindSpeedMaxMPH,WindSpeedAvgMPH,GustSpeedMaxMPH,PrecipitationSumIn
2013-9-1,86.0,69.6,59.5,73.0,64.2,57.4,98,84,59,29.82,29.67,11,2,15,0.02
2013-9-2,69.6,61.7,51.4,59.7,55.8,48.6,95,81,63,30.01,29.81,12,3,13,0.00
2013-9-3,52.7,50.9,48.7,50.2,48.6,46.6,93,91,90,30.04,30.01,4,0,5,0.00
2013-9-5,75.0,64.0,52.5,57.7,53.9,47.5,93,71,53,30.28,30.20,13,2,13,0.00
2013-9-6,85.8,67.3,48.2,70.2,59.5,46.2,95,78,56,30.23,29.95,11,2,12,0.00
2013-9-7,88.5,72.3,66.6,74.7,67.3,62.2,95,85,60,30.01,29.85,18,3,18,0.21
2013-9-8,70.5,65.7,60.4,64.4,61.6,58.1,94,87,80,30.07,29.93,16,5,19,0.07
2013-9-9,88.0,75.9,62.4,78.3,70.9,60.6,96,85,70,29.97,29.72,11,2,15,0.01
2013-9-10,93.2,74.2,72.7,71.4,70.0,68.7,89,87,45,29.83,29.75,9,2,14,0.00
2013-9-11,80.2,73.4,64.8,70.7,66.9,61.3,94,81,69,29.97,29.92,9,2,11,0.31
2013-9-12,72.9,63.2,53.1,62.4,55.5,44.8,97,77,53,30.13,29.94,15,4,19,0.01
2013-9-13,62.1,52.5,44.4,46.2,43.8,39.0,93,74,46,30.23,30.13,13,0,14,0.00
2013-9-14,71.4,55.8,39.4,52.5,47.0,37.9,97,75,45,30.19,29.99,12,2,14,0.00
2013-9-15,62.8,56.0,52.0,57.6,53.0,46.8,97,90,77,30.27,29.98,16,3,17,0.63
2013-9-16,61.5,50.9,40.8,51.1,44.9,38.7,93,81,61,30.43,30.27,13,3,16,0.00
2013-9-17,69.3,54.7,37.9,56.7,49.2,36.5,97,83,61,30.38,30.11,9,1,11,0.01
2013-9-18,78.8,66.7,57.9,69.1,61.8,54.5,93,85,70,30.11,29.86,14,4,18,0.13
2013-9-19,82.8,69.2,65.7,74.7,67.0,64.6,97,93,76,29.87,29.67,22,4,24,1.12
2013-9-20,72.3,64.9,57.0,66.2,61.2,53.4,98,88,68,29.80,29.67,14,3,17,0.12
2013-9-21,59.2,52.7,43.5,54.3,47.4,41.7,94,83,65,29.98,29.80,11,1,12,0.01
2013-9-22,59.4,48.7,37.8,49.1,43.5,36.3,100,83,61,30.12,29.98,12,1,12,0.00
2013-9-23,66.4,52.8,41.5,54.3,47.4,39.9,96,83,63,30.16,30.06,13,2,13,0.01
2013-9-24,69.3,56.4,45.0,58.5,51.0,43.3,97,83,62,30.08,29.98,13,2,13,0.01
2013-9-25,69.8,54.4,41.7,60.1,49.8,40.6,98,86,61,30.03,29.97,11,-2,11,0.01
2013-9-26,76.3,59.2,43.0,63.0,52.1,41.9,100,80,52,30.10,30.01,10,2,14,0.01
2013-9-27,78.6,64.8,52.0,59.9,54.1,48.0,93,70,46,30.15,30.04,12,2,14,0.00
2013-9-28,80.1,66.1,54.1,65.7,57.5,51.1,95,75,54,30.04,29.78,22,4,25,0.31
2013-9-29,71.4,56.4,43.2,55.0,47.6,42.1,100,76,40,30.06,29.93,6,0,8,0.01
2013-9-30,72.1,58.5,46.2,53.8,48.3,43.7,92,71,48,30.00,29.81,16,3,16,0.00